VVY YMEN-YMEN

Flight info

Callsign VVY
Flight time 0h 26m
Altitude 2000
Route PWLC DCT SWT DCT WES DCT BLTB DCT MCTY
Aircraft C172/L-SFG/C

Departure

Time 2026-05-08 03:48
Airport Melbourne Essendon Airport (YMEN)

Arrival

Time 2026-05-08 04:14
Airport Melbourne Essendon Airport (YMEN)
Time Latitude Longitude Altitude Speed Heading
2026-05-08 03:37 -37.72525 144.90239 261 ft 0 kts 179°
2026-05-08 03:46 -37.72523 144.90240 262 ft 5 kts 196°
2026-05-08 03:46 -37.72517 144.90247 294 ft 2 kts 196°
2026-05-08 03:47 -37.72505 144.90287 362 ft 4 kts 288°
2026-05-08 03:47 -37.72503 144.90244 477 ft 6 kts 252°
2026-05-08 03:47 -37.72472 144.90136 633 ft 24 kts 282°
2026-05-08 03:47 -37.72272 144.89959 767 ft 44 kts 309°
2026-05-08 03:48 -37.71983 144.89733 863 ft 51 kts 300°
2026-05-08 03:48 -37.71708 144.89409 971 ft 58 kts 296°
2026-05-08 03:48 -37.71410 144.89021 1076 ft 65 kts 295°
2026-05-08 03:48 -37.71059 144.88608 1178 ft 72 kts 304°
2026-05-08 03:49 -37.70656 144.88198 1279 ft 79 kts 309°
2026-05-08 03:49 -37.70216 144.87777 1394 ft 78 kts 309°
2026-05-08 03:49 -37.69785 144.87339 1523 ft 81 kts 306°
2026-05-08 03:49 -37.69353 144.86862 1678 ft 86 kts 303°
2026-05-08 03:50 -37.68919 144.86330 1768 ft 88 kts 299°
2026-05-08 03:50 -37.68503 144.85724 1759 ft 94 kts 294°
2026-05-08 03:50 -37.68099 144.85059 1757 ft 99 kts 301°
2026-05-08 03:50 -37.67551 144.84482 1754 ft 105 kts 310°
2026-05-08 03:51 -37.66974 144.83935 1757 ft 103 kts 311°
2026-05-08 03:51 -37.66376 144.83415 1768 ft 104 kts 313°
2026-05-08 03:51 -37.65781 144.82891 1760 ft 104 kts 309°
2026-05-08 03:51 -37.65253 144.82305 1761 ft 100 kts 300°
2026-05-08 03:52 -37.64785 144.81665 1755 ft 100 kts 303°
2026-05-08 03:52 -37.64242 144.81106 1756 ft 102 kts 314°
2026-05-08 03:52 -37.63641 144.80613 1760 ft 102 kts 311°
2026-05-08 03:52 -37.63106 144.80024 1761 ft 101 kts 302°
2026-05-08 03:53 -37.62660 144.79371 1754 ft 96 kts 292°
2026-05-08 03:53 -37.62301 144.78707 1761 ft 90 kts 288°
2026-05-08 03:53 -37.62017 144.78014 1761 ft 88 kts 279°
2026-05-08 03:53 -37.61611 144.77379 1754 ft 104 kts 315°
2026-05-08 03:54 -37.60965 144.76924 1756 ft 109 kts 321°
2026-05-08 03:54 -37.60289 144.76523 1759 ft 105 kts 319°
2026-05-08 03:54 -37.59693 144.76004 1752 ft 102 kts 307°
2026-05-08 03:54 -37.59161 144.75415 1766 ft 104 kts 307°
2026-05-08 03:55 -37.58631 144.74752 1749 ft 105 kts 296°
2026-05-08 03:55 -37.58272 144.73989 1751 ft 99 kts 283°
2026-05-08 03:55 -37.58035 144.73208 1753 ft 93 kts 276°
2026-05-08 03:55 -37.57796 144.72457 1744 ft 96 kts 293°
2026-05-08 03:56 -37.57282 144.71909 1750 ft 97 kts 314°
2026-05-08 03:56 -37.56723 144.71434 1755 ft 101 kts 315°
2026-05-08 03:56 -37.56098 144.70975 1752 ft 107 kts 319°
2026-05-08 03:56 -37.55425 144.70494 1750 ft 111 kts 320°
2026-05-08 03:57 -37.54855 144.69955 1727 ft 93 kts 300°
2026-05-08 03:57 -37.54668 144.69314 1745 ft 71 kts 248°
2026-05-08 03:57 -37.55030 144.68938 1755 ft 75 kts 202°
2026-05-08 03:57 -37.55591 144.68886 1757 ft 88 kts 179°
2026-05-08 03:58 -37.56204 144.69170 1753 ft 101 kts 159°
2026-05-08 03:58 -37.56760 144.69730 1735 ft 100 kts 146°
2026-05-08 03:58 -37.57190 144.70353 1746 ft 87 kts 143°
2026-05-08 03:58 -37.57552 144.70925 1755 ft 81 kts 143°
2026-05-08 03:59 -37.57910 144.71460 1754 ft 75 kts 155°
2026-05-08 03:59 -37.58267 144.71427 1750 ft 54 kts 235°
2026-05-08 03:59 -37.58354 144.70975 1752 ft 52 kts 249°
2026-05-08 03:59 -37.58616 144.70716 1759 ft 52 kts 212°
2026-05-08 04:00 -37.58936 144.70456 1755 ft 56 kts 218°
2026-05-08 04:00 -37.59239 144.70114 1666 ft 65 kts 220°
2026-05-08 04:00 -37.59640 144.69808 1560 ft 69 kts 207°
2026-05-08 04:00 -37.60082 144.69622 1519 ft 65 kts 199°
2026-05-08 04:01 -37.60519 144.69549 1505 ft 63 kts 197°
2026-05-08 04:01 -37.60910 144.69434 1492 ft 52 kts 205°
2026-05-08 04:01 -37.61242 144.69333 1498 ft 47 kts 206°
2026-05-08 04:01 -37.61582 144.69315 1502 ft 57 kts 182°
2026-05-08 04:02 -37.61944 144.69708 1498 ft 78 kts 144°
2026-05-08 04:02 -37.62298 144.70279 1495 ft 85 kts 140°
2026-05-08 04:02 -37.62655 144.70862 1491 ft 82 kts 141°
2026-05-08 04:02 -37.62990 144.71411 1494 ft 76 kts 143°
2026-05-08 04:03 -37.63206 144.71761 1494 ft 73 kts 143°
2026-05-08 04:03 -37.63867 144.72682 1495 ft 71 kts 150°
2026-05-08 04:03 -37.64201 144.73133 1499 ft 72 kts 149°
2026-05-08 04:04 -37.64551 144.73607 1500 ft 76 kts 150°
2026-05-08 04:04 -37.64932 144.74109 1500 ft 82 kts 148°
2026-05-08 04:04 -37.65342 144.74636 1498 ft 85 kts 148°
2026-05-08 04:04 -37.65762 144.75174 1496 ft 86 kts 147°
2026-05-08 04:05 -37.66191 144.75703 1496 ft 86 kts 148°
2026-05-08 04:05 -37.66608 144.76192 1463 ft 71 kts 149°
2026-05-08 04:05 -37.66923 144.76582 1497 ft 65 kts 158°
2026-05-08 04:05 -37.67274 144.77011 1490 ft 71 kts 151°
2026-05-08 04:06 -37.67631 144.77463 1477 ft 70 kts 153°
2026-05-08 04:06 -37.67944 144.77850 1512 ft 67 kts 147°
2026-05-08 04:06 -37.68308 144.78256 1501 ft 75 kts 167°
2026-05-08 04:06 -37.68816 144.78536 1498 ft 84 kts 169°
2026-05-08 04:07 -37.69378 144.78843 1494 ft 91 kts 166°
2026-05-08 04:07 -37.69968 144.79181 1497 ft 96 kts 165°
2026-05-08 04:07 -37.70579 144.79538 1496 ft 98 kts 161°
2026-05-08 04:07 -37.71176 144.79992 1492 ft 101 kts 157°
2026-05-08 04:08 -37.71761 144.80496 1498 ft 104 kts 154°
2026-05-08 04:08 -37.72355 144.81011 1497 ft 103 kts 155°
2026-05-08 04:08 -37.72965 144.81517 1498 ft 105 kts 154°
2026-05-08 04:08 -37.73573 144.82005 1491 ft 102 kts 156°
2026-05-08 04:09 -37.74169 144.82480 1498 ft 100 kts 156°
2026-05-08 04:09 -37.74756 144.82959 1498 ft 102 kts 155°
2026-05-08 04:09 -37.75358 144.83443 1498 ft 103 kts 156°
2026-05-08 04:09 -37.75973 144.83924 1497 ft 104 kts 156°
2026-05-08 04:10 -37.76585 144.84410 1497 ft 104 kts 158°
2026-05-08 04:10 -37.77176 144.84895 1572 ft 95 kts 158°
2026-05-08 04:10 -37.77705 144.85342 1597 ft 91 kts 158°
2026-05-08 04:10 -37.78240 144.85785 1607 ft 96 kts 158°
2026-05-08 04:11 -37.78805 144.86287 1601 ft 100 kts 157°
2026-05-08 04:11 -37.79382 144.86816 1603 ft 106 kts 148°
2026-05-08 04:11 -37.79921 144.87483 1601 ft 109 kts 143°
2026-05-08 04:11 -37.80466 144.88153 1595 ft 106 kts 149°
2026-05-08 04:12 -37.81028 144.88707 1593 ft 102 kts 156°
2026-05-08 04:12 -37.81658 144.89054 1596 ft 96 kts 174°
2026-05-08 04:12 -37.82275 144.89400 1594 ft 105 kts 144°
2026-05-08 04:12 -37.82446 144.90326 1595 ft 120 kts 74°
2026-05-08 04:13 -37.82097 144.91261 1586 ft 111 kts 71°
2026-05-08 04:13 -37.81982 144.92107 1596 ft 87 kts 100°
2026-05-08 04:13 -37.82007 144.92809 1612 ft 72 kts 105°
2026-05-08 04:13 -37.82050 144.93419 1600 ft 67 kts 113°
2026-05-08 04:14 -37.82169 144.93935 1595 ft 56 kts 129°
2026-05-08 04:14 -37.82302 144.94353 1610 ft 44 kts 134°
2026-05-08 04:14 -37.82345 144.94698 1649 ft 44 kts 124°
2026-05-08 04:14 -37.82370 144.95181 1621 ft 66 kts 98°
2026-05-08 04:15 -37.82266 144.95778 1627 ft 74 kts 70°
2026-05-08 04:15 -37.81863 144.96183 1625 ft 76 kts
2026-05-08 04:15 -37.81348 144.96240 1625 ft 74 kts 342°
2026-05-08 04:15 -37.80873 144.96080 1632 ft 68 kts 320°
2026-05-08 04:16 -37.80414 144.95892 1627 ft 71 kts 329°
2026-05-08 04:16 -37.79927 144.95719 1630 ft 72 kts 322°
2026-05-08 04:16 -37.79479 144.95435 1632 ft 74 kts 314°
2026-05-08 04:16 -37.79012 144.95095 1632 ft 81 kts 315°
2026-05-08 04:17 -37.78519 144.94743 1623 ft 81 kts 315°
2026-05-08 04:17 -37.78033 144.94427 1629 ft 78 kts 320°
2026-05-08 04:17 -37.77526 144.94139 1631 ft 82 kts 321°
2026-05-08 04:17 -37.76987 144.93852 1635 ft 86 kts 322°
2026-05-08 04:18 -37.76486 144.93498 1627 ft 80 kts 309°
2026-05-08 04:18 -37.76028 144.93106 1634 ft 79 kts 307°
2026-05-08 04:18 -37.75573 144.92705 1633 ft 80 kts 309°
2026-05-08 04:18 -37.75099 144.92314 1613 ft 84 kts 313°
2026-05-08 04:19 -37.74621 144.91942 1598 ft 76 kts 316°
2026-05-08 04:19 -37.74164 144.91690 1653 ft 67 kts 319°
2026-05-08 04:19 -37.73776 144.91460 1719 ft 54 kts 302°
2026-05-08 04:19 -37.73454 144.91197 1727 ft 59 kts 302°
2026-05-08 04:20 -37.73119 144.90896 1746 ft 54 kts 302°
2026-05-08 04:20 -37.72883 144.90675 1789 ft 35 kts 262°
2026-05-08 04:20 -37.72943 144.90533 1764 ft 26 kts 178°
2026-05-08 04:20 -37.73093 144.90746 1659 ft 38 kts 158°
2026-05-08 04:21 -37.73217 144.90725 1534 ft 30 kts 278°
2026-05-08 04:21 -37.72950 144.90731 1423 ft 58 kts 76°
2026-05-08 04:21 -37.72974 144.90952 1265 ft 19 kts 247°
2026-05-08 04:21 -37.72786 144.90696 1092 ft 44 kts 281°
2026-05-08 04:22 -37.72869 144.90611 963 ft 28 kts 160°
2026-05-08 04:22 -37.72998 144.90599 813 ft 8 kts 245°
2026-05-08 04:22 -37.72933 144.90568 492 ft 12 kts 274°
2026-05-08 04:22 -37.72897 144.90507 265 ft 1 kts 300°